Hourly Data Report for July 14, 2017

All times are specified in Local Standard Time (LST). Add 1 hour to adjust for Daylight Saving Time where and when it is observed.

LUTSELK'E CS
NORTHWEST TERRITORIES

62°24'56.030" N
110°41'25.070" W
178.90 m
220L002
71529
XLU

Download Data

Hourly Data (July 2017)
Hourly Data Report for July 14, 2017
Temp Definition
°C
Dew Point Temp Definition
°C
Rel Hum Definition
%
Wind Dir Definition
10's deg

Wind Spd Definition
km/h
Visibility Definition
km
Stn Press Definition
kPa
Hmdx Definition


Wind Chill Definition


Weather Definition


TIME
00:00 6.4 5.0 91 LegendMM LegendMM   99.64     LegendNANA
01:00 5.9 4.8 92 LegendMM LegendMM   99.66     LegendNANA
02:00 5.4 4.3 93 LegendMM LegendMM   99.71     LegendNANA
03:00 4.7 1.9 82 LegendMM LegendMM   99.75     LegendNANA
04:00 5.6 3.3 85 LegendMM LegendMM   99.78     LegendNANA
05:00 10.3 7.1 81 LegendMM LegendMM   99.82     LegendNANA
06:00 13.2 7.4 68 LegendMM LegendMM   99.83     LegendNANA
07:00 13.3 6.5 63 LegendMM LegendMM   99.84     LegendNANA
08:00 14.1 6.1 58 LegendMM LegendMM   99.85     LegendNANA
09:00 15.2 1.7 40 LegendMM LegendMM   99.85     LegendNANA
10:00 16.2 1.0 36 LegendMM LegendMM   99.85     LegendNANA
11:00 17.0 1.2 34 LegendMM LegendMM   99.85     LegendNANA
12:00 18.0 1.6 33 LegendMM LegendMM   99.83     LegendNANA
13:00 18.6 2.2 33 LegendMM LegendMM   99.82     LegendNANA
14:00 19.6 2.8 33 LegendMM LegendMM   99.78     LegendNANA
15:00 19.7 1.9 31 LegendMM LegendMM   99.74     LegendNANA
16:00 20.2 2.5 31 LegendMM LegendMM   99.69     LegendNANA
17:00 20.8 2.2 29 LegendMM LegendMM   99.63     LegendNANA
18:00 20.6 2.2 29 LegendMM LegendMM   99.57     LegendNANA
19:00 20.2 2.9 32 LegendMM LegendMM   99.53     LegendNANA
20:00 19.7 2.9 33 LegendMM LegendMM   99.50     LegendNANA
21:00 17.6 1.1 33 LegendMM LegendMM   99.48     LegendNANA
22:00 14.1 2.9 47 LegendMM LegendMM   99.49     LegendNANA
23:00 14.3 4.7 52 LegendMM LegendMM   99.50     LegendNANA

Notes on Data Quality.

Legend

  • E = Estimated
  • M = Missing
  • NA = Not Available
  • ‡ = Partner data that is not subject to review by the National Climate Archives
Date modified: